Snowfall_Accumulation
0.0 0.0 0.0 0.0 0.0 0.0 0.0 0.1 0.2 0.3 0.0 0.0 0.0 0.0 0.0 0.0 0.0 0.0 0.0 0.0 0.0 0.0 0.0 0.0 0.0 0.0 0.0 0.0 0.0 0.0 0.0 0.0 0.0 0.0 0.0 0.0 0.0 0.0
0.0 0.0 0.0 0.0 0.0 0.0 0.0 0.1 0.1 0.3 0.4 0.0 0.0 0.0 0.0 0.0 0.0 0.0 0.0 0.0 0.0 0.0 0.1 0.1 0.1 0.1 0.1 0.0 0.0 0.0 0.0 0.0 0.0 0.0 0.0 0.0 0.0 0.0
0.0 0.1 0.1 0.1 0.1 0.1 0.1 0.1 0.1 0.2 0.4 0.1 0.1 0.1 0.1 0.0 0.0 0.0 0.0 0.0 0.0 0.1 0.1 0.1 0.2 0.1 0.1 0.1 0.1 0.1 0.0 0.0 0.0 0.0 0.0 0.0 0.0 0.0
0.1 0.1 0.1 0.1 0.1 0.2 0.1 0.2 0.2 0.3 0.9 1.0 0.3 0.2 0.2 0.2 0.1 0.1 0.0 0.0 0.0 0.0 0.1 0.2 0.2 0.2 0.2 0.2 0.2 0.1 0.1 0.0 0.0 0.0 0.0 0.0 0.0 0.0
0.1 0.2 0.2 0.2 0.2 0.2 0.3 0.3 0.4 0.4 0.7 1.1 0.6 0.2 0.2 0.1 0.2 0.1 0.1 0.0 0.0 0.0 0.0 0.1 0.1 0.2 0.3 0.3 0.3 0.2 0.2 0.2 0.1 0.1 0.1 0.0 0.0 0.0
0.4 0.4 0.6 0.6 0.6 0.5 0.5 0.6 0.8 1.0 1.0 1.5 1.6 1.1 0.8 0.4 0.4 0.3 0.2 0.1 0.1 0.1 0.1 0.0 0.1 0.2 0.2 0.2 0.2 0.3 0.3 0.4 0.4 0.4 0.4 0.2 0.1 0.1
0.5 0.5 0.4 0.3 0.3 0.4 0.6 1.0 1.3 1.8 2.5 2.9 2.6 1.8 1.1 0.9 0.8 0.7 0.9 0.4 0.4 0.1 0.1 0.1 0.1 0.1 0.1 0.1 0.1 0.1 0.2 0.4 0.6 0.6 0.5 0.4 0.2 0.2
0.4 0.6 0.4 0.5 0.4 0.4 0.6 1.0 1.9 3.1 4.0 4.3 3.9 2.7 1.3 1.0 0.9 1.2 1.7 2.5 2.0 0.4 0.5 0.4 0.3 0.2 0.2 0.1 0.1 0.3 0.4 0.7 0.8 1.0 0.7 0.6 0.4 0.3
1.0 0.7 0.6 0.5 0.6 0.6 0.6 1.1 1.5 2.0 2.7 3.2 3.2 2.0 1.4 1.2 2.4 3.7 3.7 4.1 3.1 1.1 1.1 1.2 0.4 0.4 0.2 0.2 0.2 0.4 0.4 0.6 0.8 0.9 0.8 0.6 0.6 0.5
0.8 0.6 0.7 0.6 0.5 0.9 1.5 1.9 1.2 0.7 0.7 0.8 1.1 1.2 1.3 1.5 3.1 5.4 5.3 4.2 2.0 0.8 0.8 2.3 0.8 0.6 0.2 0.2 0.2 0.3 0.5 0.6 0.8 1.0 1.0 0.8 0.7 0.6
0.5 0.5 0.7 0.6 0.7 1.9 3.2 2.9 1.4 0.4 0.2 0.5 0.9 1.0 1.0 1.0 1.5 4.2 5.8 6.5 4.6 1.2 1.2 2.1 1.4 1.2 1.0 0.7 0.2 0.4 0.8 0.8 1.1 1.0 1.0 1.1 0.9 0.8
0.7 0.6 0.6 0.8 1.4 2.6 3.2 2.9 2.1 0.8 1.0 0.7 0.5 0.2 0.3 0.4 0.7 3.1 7.4 11.9 9.5 5.4 1.7 3.1 3.6 4.3 5.4 2.1 1.7 1.3 1.1 1.1 1.1 0.9 1.1 1.1 1.2 1.3
1.4 1.0 0.4 1.1 2.1 2.4 2.3 1.8 1.9 2.5 2.1 1.3 0.9 0.8 0.7 0.7 0.8 1.5 4.0 11.3 15.2 9.9 3.1 7.3 9.0 6.3 10.0 7.3 3.2 2.3 2.3 2.6 2.1 1.4 1.2 1.2 1.2 1.6
1.8 1.1 1.0 1.8 2.0 1.6 1.3 1.3 1.7 1.7 1.5 1.9 1.8 1.7 1.8 1.8 2.0 2.2 3.2 5.4 8.5 9.8 6.3 9.7 15.2 11.8 14.3 11.4 6.1 4.1 2.7 3.5 4.3 3.0 1.9 1.1 1.0 1.2
1.4 1.6 1.7 1.6 1.5 1.4 1.0 1.4 1.6 2.0 2.7 3.8 3.4 2.6 2.6 3.0 3.1 4.0 4.2 4.5 5.2 5.5 7.3 7.9 11.5 12.6 15.2 14.8 10.6 8.1 8.4 5.4 5.4 5.0 3.5 2.4 1.6 1.5
1.9 1.6 1.3 1.0 1.2 1.5 1.5 1.8 1.9 2.8 4.6 6.1 5.5 4.1 3.9 4.7 6.1 7.4 8.9 9.4 11.3 9.6 8.3 8.0 8.4 12.2 14.6 11.7 12.6 11.7 11.3 11.8 8.4 6.6 5.1 3.7 2.2 1.7
2.4 1.7 1.7 1.7 1.9 2.1 1.9 2.2 2.5 2.9 4.6 5.8 6.6 7.3 7.3 8.3 9.9 11.7 13.0 13.1 13.0 11.2 9.1 7.2 6.6 7.2 9.2 10.7 12.0 11.2 11.5 11.6 9.1 6.4 6.3 6.4 3.2 2.3
2.4 2.6 2.4 2.5 2.8 2.9 3.1 2.9 3.1 4.1 5.6 7.4 8.7 9.8 11.9 12.7 12.9 12.6 13.2 13.7 12.8 10.1 8.5 7.0 7.1 7.7 7.2 6.4 8.5 11.3 11.8 11.9 8.4 7.1 7.4 8.8 6.8 3.7
3.0 3.2 3.0 3.2 3.5 3.9 4.2 5.0 4.6 5.0 6.8 9.3 11.7 13.5 14.7 15.0 14.7 14.0 12.7 11.7 10.2 8.0 7.1 6.4 7.5 12.3 13.2 8.7 6.1 8.2 13.7 13.9 9.8 8.0 7.6 8.4 8.6 5.8
3.5 4.6 4.8 4.3 4.5 5.2 5.9 6.8 7.6 8.1 9.2 11.7 13.2 14.7 16.2 16.9 15.3 12.9 11.0 10.1 9.1 7.3 5.8 4.9 6.2 11.7 17.9 16.2 12.5 9.7 9.5 14.2 15.5 13.6 8.7 6.1 5.6 3.9
5.0 5.4 5.6 5.4 5.3 6.5 7.4 8.8 10.4 12.1 12.7 14.7 15.4 16.1 16.7 16.7 14.0 10.4 8.8 7.4 7.8 7.9 7.5 5.5 4.7 6.3 10.9 14.3 13.0 9.2 9.9 8.4 10.9 16.9 16.4 14.2 11.0 8.1
4.2 4.8 5.2 5.5 6.0 7.6 8.7 10.3 12.0 12.8 14.0 15.1 16.1 15.9 14.9 13.7 11.9 8.8 7.8 7.9 7.5 7.1 6.8 5.3 4.2 5.4 8.9 13.2 11.9 8.8 9.0 8.8 6.7 5.6 8.2 12.9 21.1 21.6
4.5 5.3 6.1 6.5 7.3 8.6 10.5 11.6 12.4 13.2 14.7 16.0 16.0 14.6 12.7 10.7 8.4 7.9 7.8 8.0 8.0 7.2 6.7 6.5 5.8 5.8 6.9 8.7 10.3 9.1 8.2 7.6 7.2 7.7 9.6 6.4 6.7 8.1